Terug naar catalogus

YAOGAN-39 04B

ActiefMilitairVLEO
NORAD 58143·PAYLOAD·🇨🇳 China

Gelanceerd Oct 23, 2023 vanaf Xichang Satellite Launch Center

Loading…

Volgende Passages (komende 24 uur)

TLE

VersSource: Space-Track

Epoch: Sep 14, 2026, 23:10 UTC

1 58143U 23163C   26257.96577619  .00004784  00000-0  24006-3 0  9996
2 58143  34.9932 169.4525 0010696 287.9689  71.9857 15.16678663160953

Volg YAOGAN-39 04B in realtime met AllMySat

Download on the App Store